When you browse on this site, cookies collect data to enhance your experience and personalize the content and advertising you see.
Visit our Privacy Policy to learn more. By continuing to use the site, you agree to this use of cookies and data.
  • In Germany
  • List of Countries
  • For 7 days
  • Water Temperature
  • Weather Map
  • Weather Widgets
  • user-avatar
    Login

    Hourly Weather Wiesbaden

    Today, 10 December, Tuesday

    Time Temperature Precipitation Wind Pressure Humidity
    00:00 +3°C° 0 mm 4 mps 749 mmHg 78%
    01:00 +3°C° 0 mm 3 mps 751 mmHg 78%
    02:00 +2°C° 0 mm 3 mps 751 mmHg 80%
    03:00 +3°C° 0 mm 2 mps 752 mmHg 82%
    04:00 +2°C° 0 mm 2 mps 753 mmHg 84%
    05:00 +2°C° 0 mm 2 mps 753 mmHg 85%
    06:00 +2°C° 0 mm 2 mps 754 mmHg 85%
    07:00 +2°C° 0 mm 1 mps 755 mmHg 86%
    08:00 +3°C° 0 mm 1 mps 755 mmHg 84%
    09:00 +3°C° 0 mm 1 mps 755 mmHg 82%
    10:00 +4°C° 0 mm 1 mps 756 mmHg 80%
    11:00 +4°C° 0 mm 2 mps 756 mmHg 75%
    12:00 +4°C° 0 mm 2 mps 756 mmHg 71%
    13:00 +5°C° 0 mm 2 mps 755 mmHg 67%
    14:00 +5°C° 0 mm 2 mps 755 mmHg 70%
    15:00 +4°C° 0 mm 2 mps 754 mmHg 74%
    16:00 +3°C° 0 mm 3 mps 753 mmHg 78%
    17:00 +3°C° 0 mm 2 mps 753 mmHg 81%
    18:00 +3°C° 0 mm 2 mps 752 mmHg 84%
    19:00 +2°C° 0 mm 2 mps 752 mmHg 87%
    20:00 +2°C° 0 mm 2 mps 751 mmHg 86%
    21:00 +2°C° 0 mm 2 mps 751 mmHg 85%
    22:00 +1°C° 0 mm 3 mps 750 mmHg 84%
    23:00 +1°C° 0 mm 3 mps 750 mmHg 83%

    Tomorrow, 11 December, Wednesday

    Time Temperature Precipitation Wind Pressure Humidity
    00:00 +1°C° 0 mm 3 mps 749 mmHg 81%
    01:00 +1°C° 0 mm 3 mps 749 mmHg 80%
    02:00 +1°C° 0 mm 3 mps 748 mmHg 78%
    03:00 +1°C° 0 mm 3 mps 747 mmHg 77%
    04:00 +1°C° 0 mm 3 mps 746 mmHg 75%
    05:00 +1°C° 0.3 mm 3 mps 746 mmHg 77%
    06:00 +1°C° 0.3 mm 3 mps 746 mmHg 78%
    07:00 +1°C° 0.3 mm 3 mps 745 mmHg 80%
    08:00 +1°C° 0.3 mm 3 mps 745 mmHg 81%
    09:00 +1°C° 0.3 mm 3 mps 745 mmHg 83%
    10:00 +1°C° 0.3 mm 3 mps 744 mmHg 85%
    11:00 +2°C° 0.2 mm 3 mps 744 mmHg 86%
    12:00 +3°C° 0.2 mm 2 mps 743 mmHg 86%
    13:00 +3°C° 0.2 mm 2 mps 743 mmHg 87%
    14:00 +3°C° 0.1 mm 2 mps 742 mmHg 88%
    15:00 +3°C° 0.1 mm 2 mps 742 mmHg 90%
    16:00 +3°C° 0.1 mm 2 mps 741 mmHg 91%
    17:00 +4°C° 0.1 mm 2 mps 741 mmHg 91%
    18:00 +3°C° 0.1 mm 3 mps 742 mmHg 91%
    19:00 +3°C° 0.1 mm 3 mps 742 mmHg 91%
    20:00 +4°C° 0 mm 2 mps 742 mmHg 90%
    21:00 +3°C° 0 mm 2 mps 741 mmHg 90%
    22:00 +3°C° 0 mm 2 mps 741 mmHg 90%
    23:00 +3°C° 0 mm 2 mps 741 mmHg 91%

    Day after tomorrow, 12 December, Thursday

    Time Temperature Precipitation Wind Pressure Humidity
    00:00 +3°C° 0 mm 2 mps 741 mmHg 91%
    01:00 +2°C° 0 mm 2 mps 741 mmHg 92%
    02:00 +2°C° 0 mm 2 mps 740 mmHg 92%
    03:00 +3°C° 0 mm 1 mps 740 mmHg 92%
    04:00 +3°C° 0 mm 1 mps 740 mmHg 93%
    05:00 +3°C° 0 mm 1 mps 740 mmHg 93%
    06:00 +3°C° 0 mm 1 mps 740 mmHg 93%
    07:00 +4°C° 0 mm 1 mps 740 mmHg 93%
    08:00 +4°C° 0.2 mm 1 mps 740 mmHg 94%
    09:00 +4°C° 0.2 mm 1 mps 741 mmHg 95%
    10:00 +4°C° 0.2 mm 1 mps 741 mmHg 96%
    11:00 +3°C° 0.1 mm 2 mps 741 mmHg 93%
    12:00 +3°C° 0.1 mm 2 mps 740 mmHg 90%
    13:00 +2°C° 0.1 mm 3 mps 740 mmHg 86%
    14:00 +2°C° 0 mm 3 mps 740 mmHg 83%
    15:00 +2°C° 0 mm 3 mps 739 mmHg 80%
    16:00 +1°C° 0 mm 4 mps 738 mmHg 78%
    17:00 +1°C° 0 mm 4 mps 737 mmHg 77%
    18:00 +1°C° 0 mm 5 mps 736 mmHg 77%
    19:00 +1°C° 0 mm 5 mps 735 mmHg 76%
    20:00 0°C° 0 mm 5 mps 734 mmHg 76%
    21:00 0°C° 0 mm 5 mps 732 mmHg 77%
    22:00 0°C° 0 mm 5 mps 730 mmHg 77%
    23:00 0°C° 0.7 mm 5 mps 728 mmHg 83%

    13 December, Friday

    Time Temperature Precipitation Wind Pressure Humidity
    00:00 -2°C° 0.7 mm 6 mps 726 mmHg 89%
    01:00 -2°C° 0.7 mm 6 mps 724 mmHg 95%
    02:00 -1°C° 2.2 mm 6 mps 723 mmHg 95%
    03:00 0°C° 2.2 mm 5 mps 722 mmHg 96%
    04:00 +1°C° 2.2 mm 5 mps 721 mmHg 96%
    05:00 +1°C° 0.5 mm 4 mps 721 mmHg 95%
    06:00 +1°C° 0.5 mm 4 mps 720 mmHg 93%
    07:00 +1°C° 0.5 mm 4 mps 720 mmHg 92%
    08:00 +3°C° 0.1 mm 4 mps 721 mmHg 90%
    09:00 +3°C° 0.1 mm 4 mps 721 mmHg 88%
    10:00 +3°C° 0.1 mm 4 mps 721 mmHg 85%
    11:00 +2°C° 0 mm 5 mps 721 mmHg 84%
    12:00 +2°C° 0 mm 6 mps 721 mmHg 82%
    13:00 +2°C° 0 mm 7 mps 721 mmHg 81%
    14:00 +2°C° 0.5 mm 7 mps 721 mmHg 84%
    15:00 +2°C° 0.5 mm 7 mps 721 mmHg 87%
    16:00 +1°C° 0.5 mm 8 mps 721 mmHg 90%
    17:00 +3°C° 0.5 mm 7 mps 721 mmHg 89%
    18:00 +3°C° 0.5 mm 7 mps 722 mmHg 88%
    19:00 +4°C° 0.5 mm 7 mps 722 mmHg 87%
    20:00 +4°C° 0.1 mm 7 mps 723 mmHg 84%
    21:00 +4°C° 0.1 mm 7 mps 724 mmHg 81%
    22:00 +4°C° 0.1 mm 7 mps 724 mmHg 78%
    23:00 +3°C° 0.1 mm 7 mps 725 mmHg 80%

    14 December, Saturday

    Time Temperature Precipitation Wind Pressure Humidity
    00:00 +3°C° 0.1 mm 7 mps 726 mmHg 81%
    01:00 +3°C° 0.1 mm 7 mps 726 mmHg 83%
    02:00 +3°C° 0.1 mm 6 mps 726 mmHg 85%
    03:00 +2°C° 0.1 mm 6 mps 726 mmHg 87%
    04:00 +2°C° 0.1 mm 5 mps 727 mmHg 90%
    05:00 +2°C° 0.9 mm 5 mps 726 mmHg 91%
    06:00 +2°C° 0.9 mm 5 mps 725 mmHg 92%
    07:00 +3°C° 0.9 mm 4 mps 724 mmHg 93%
    08:00 +3°C° 0.7 mm 6 mps 725 mmHg 89%
    09:00 +4°C° 0.7 mm 7 mps 725 mmHg 86%
    10:00 +6°C° 0.7 mm 8 mps 726 mmHg 82%
    11:00 +5°C° 0.1 mm 8 mps 727 mmHg 75%
    12:00 +5°C° 0.1 mm 7 mps 729 mmHg 69%
    13:00 +5°C° 0.1 mm 7 mps 730 mmHg 63%
    14:00 +4°C° 0.8 mm 6 mps 731 mmHg 71%
    15:00 +4°C° 0.8 mm 6 mps 731 mmHg 78%
    16:00 +3°C° 0.8 mm 5 mps 732 mmHg 86%
    17:00 +3°C° 0.1 mm 5 mps 733 mmHg 85%
    18:00 +3°C° 0.1 mm 5 mps 734 mmHg 84%
    19:00 +3°C° 0.1 mm 5 mps 735 mmHg 83%
    20:00 +3°C° 0.3 mm 6 mps 736 mmHg 82%
    21:00 +3°C° 0.3 mm 6 mps 737 mmHg 81%
    22:00 +3°C° 0.3 mm 6 mps 738 mmHg 80%
    23:00 +3°C° 0.1 mm 6 mps 738 mmHg 81%

    15 December, Sunday

    Time Temperature Precipitation Wind Pressure Humidity
    00:00 +3°C° 0.1 mm 5 mps 739 mmHg 81%
    01:00 +3°C° 0.1 mm 5 mps 740 mmHg 82%
    02:00 +3°C° 0 mm 4 mps 740 mmHg 82%
    03:00 +3°C° 0 mm 3 mps 740 mmHg 82%
    04:00 +3°C° 0 mm 3 mps 741 mmHg 83%
    05:00 +4°C° 0 mm 2 mps 740 mmHg 84%
    06:00 +4°C° 0 mm 2 mps 740 mmHg 85%
    07:00 +4°C° 0 mm 2 mps 740 mmHg 86%
    08:00 +4°C° 0.2 mm 3 mps 739 mmHg 89%
    09:00 +5°C° 0.2 mm 3 mps 739 mmHg 91%
    10:00 +5°C° 0.2 mm 4 mps 739 mmHg 94%
    11:00 +6°C° 0.4 mm 4 mps 739 mmHg 92%
    12:00 +7°C° 0.4 mm 4 mps 739 mmHg 91%
    13:00 +8°C° 0.4 mm 4 mps 739 mmHg 89%
    14:00 +8°C° 0.2 mm 4 mps 739 mmHg 89%
    15:00 +8°C° 0.2 mm 4 mps 739 mmHg 89%
    16:00 +9°C° 0.2 mm 3 mps 739 mmHg 89%
    17:00 +9°C° 0.3 mm 3 mps 740 mmHg 90%
    18:00 +9°C° 0.3 mm 3 mps 740 mmHg 91%
    19:00 +9°C° 0.3 mm 3 mps 740 mmHg 92%
    20:00 +9°C° 0.3 mm 3 mps 740 mmHg 91%
    21:00 +9°C° 0.3 mm 3 mps 740 mmHg 90%
    22:00 +9°C° 0.3 mm 3 mps 740 mmHg 89%
    23:00 +8°C° 0 mm 3 mps 740 mmHg 90%
    Show more